Regional Weather Roundup
Issued by NWS

Home | Current Version | Previous Version | Text Only | Print | Product List | Glossary On
Versions: 1 2 3 4 5 6 7 8 9 10 11 12 13 14 15 16 17 18 19 20 21 22 23 24 25 26 27 28 29 30 31 32 33 34 35 36 37 38 39 40 41 42 43 44 45 46 47 48 49 50
000
ASUS45 KABQ 250901
RWRNM
WEATHER ROUNDUP FOR NEW MEXICO
NATIONAL WEATHER SERVICE ALBUQUERQUE NM
300 AM MDT SAT OCT 25 2014

NOTE: "FAIR" MEANS FEW OR NO CLOUDS BELOW 12,000 FEET AGL WITH NO
       SIGNIFICANT WEATHER OR OBSTRUCTIONS TO VISION.

      THIS PRODUCT IS RELEASED AS TWO VERSIONS.  ONE VERSION NEAR
      THE TOP OF THE HOUR CONTAINING PRELIMINARY DATA FROM ALBUQUERQUE
      AND OTHER STATIONS.  A FINAL VERSION WITH ADDITIONAL DATA IS
      ISSUED ABOUT 10 MINUTES AFTER THE HOUR.

NMZ501-503-504-510>518-251000-
NORTHWEST PLATEAU/NORTHCENTRAL MOUNTAINS

CITY           SKY/WX    TMP DP  RH WIND       PRES   REMARKS
FARMINGTON     CLEAR     44  30  57 E9        30.31R
LOS ALAMOS     PTCLDY    55  20  25 CALM      30.38S
SANTA FE       CLEAR     47  22  37 N8        30.33S
TAOS           PTCLDY    36  21  55 N6        30.40S WCI  31
ANGEL FIRE     FAIR      25  20  83 CALM      30.48S

$$
NMZ402-403-502-505>509-251000-
WESTCENTRAL MOUNTAINS/SOUTHWEST MOUNTAINS

CITY           SKY/WX    TMP DP  RH WIND       PRES   REMARKS
GALLUP         CLEAR     37  30  75 E3        30.36S
GRANTS         CLEAR     34  25  69 NW7       30.38S WCI  28
SILVER CITY    CLEAR     50  41  71 N10       30.31S

$$
NMZ407-409-411-412-251000-
SOUTHERN DESERTS

CITY           SKY/WX    TMP DP  RH WIND       PRES   REMARKS
LORDSBURG      FAIR      50  43  76 SE5       30.23S
DEMING         CLEAR     52  44  74 NW6       30.23F
LAS CRUCES     CLEAR     55  46  73 CALM      30.25R
HOLLOMAN AFB   PTCLDY    52  45  76 NW2       30.21S
T OR C         CLEAR     60  44  55 W3        30.25F

$$
NMZ519>523-251000-
CENTRAL VALLEYS/CENTRAL HIGHLANDS

CITY           SKY/WX    TMP DP  RH WIND       PRES   REMARKS
ALBUQUERQUE    CLEAR     58  35  42 CALM      30.29S
DOUBLE EAGLE   CLEAR     44  27  50 NW3       30.31S
MORIARTY ARPT  FAIR      34  27  77 NW5       30.34S WCI  29
CLINES CORNERS PTCLDY    48  31  51 W14       30.34S
BELEN          NOT AVBL
SOCORRO        FAIR      49  41  73 W5        30.27R

$$
NMZ524>526-539-540-251000-
SOUTHCENTRAL MOUNTAINS

CITY           SKY/WX    TMP DP  RH WIND       PRES   REMARKS
RUIDOSO        CLEAR     50  36  57 SW5       30.38S

$$
NMZ527>531-251000-
NORTHEAST HIGHLANDS/NORTHEAST PLAINS

CITY           SKY/WX    TMP DP  RH WIND       PRES   REMARKS
LAS VEGAS      PTCLDY    44  21  40 NE8       30.32S
RATON          CLEAR     39  30  70 NE9       30.29S WCI  33
CLAYTON        CLEAR     59  34  39 W10       30.18F

$$
NMZ532>537-251000-
EASTCENTRAL PLAINS

CITY           SKY/WX    TMP DP  RH WIND       PRES   REMARKS
TUCUMCARI      CLEAR     60  49  66 W5        30.15S
CANNON AFB     CLEAR     61  49  64 W9        30.20S
CLOVIS AIRPORT CLEAR     55  46  71 SW10      30.22S

$$
NMZ028-029-538-251000-
SOUTHEAST PLAINS

CITY           SKY/WX    TMP DP  RH WIND       PRES   REMARKS
ROSWELL        CLEAR     56  52  86 CALM      30.17S
CARLSBAD       CLEAR     56  52  86 N6        30.15S
HOBBS          CLEAR     55  54  94 S6        30.20F


$$



USA.gov is the U.S. government's official web portal to all federal, state and local government web resources and services.